[keps] orb12075.2l.amsat

Ray Hoad ray.hoad at mypbmail.com
Thu Mar 15 20:33:07 PDT 2012


SB KEPS @ AMSAT  $ORB12075.N
2Line Orbital Elements 12075.AMSAT

HR AMSAT ORBITAL ELEMENTS FOR AMATEUR SATELLITES IN NASA FORMAT
FROM WA5QGD FORT WORTH,TX March 15, 2012
Send SUBSCRIBE KEPS/UNSUBSCRIBE KEPS to majordomo at amsat.org only
BID: ORB12075.N

DECODE 2-LINE ELSETS WITH THE FOLLOWING KEY:
1 AAAAAU 00  0  0 BBBBB.BBBBBBBB  .CCCCCCCC  00000-0  00000-0 0  DDDZ
2 AAAAA EEE.EEEE FFF.FFFF GGGGGGG HHH.HHHH III.IIII JJ.JJJJJJJJKKKKKZ
KEY: A-CATALOGNUM B-EPOCHTIME C-DECAY D-ELSETNUM E-INCLINATION F-RAAN
G-ECCENTRICITY H-ARGPERIGEE I-MNANOM J-MNMOTION K-ORBITNUM Z-CHECKSUM

TO ALL RADIO AMATEURS BT

AO-07
1 07530U 74089B   12075.53343287 -.00000027  00000-0  10000-3 0  3317
2 07530 101.4018 076.3695 0012094 105.8368 254.4040 12.53588154708315
FO-29
1 24278U 96046B   12074.82409920  .00000052  00000-0  92852-4 0 08060
2 24278 098.5741 187.8547 0349680 273.6890 082.4331 13.52978227769193
SO-33
1 25509U 98061B   12073.61287409  .00000304  00000-0  50085-4 0 01851
2 25509 031.4308 154.5103 0352369 087.1003 276.9883 14.28680178698975
RS-22
1 27939U 03042A   12075.70266082  .00000677  00000-0  13773-3 0  1744
2 27939 097.8209 281.2766 0013135 197.6009 162.4748 14.63932811452207
VO-52
1 28650U 05017B   12074.78718574  .00001242  00000-0  15922-3 0 00515
2 28650 097.6075 110.3260 0026493 353.8582 006.2329 14.82741198370982
HO-68
1 36122U 09072B   12075.65028170 -.00000044  00000-0  00000 0 0  2885
2 36122 100.3740 136.8449 0007101 325.3339 034.7317 13.16293846108088
UO-11
1 14781U 84021B   12075.91392301  .00000396  00000-0  58890-4 0  8147
2 14781 097.9666 136.2088 0008862 342.7361 017.3552 14.80344709506132
AO-16
1 20439U 90005D   12075.88030704  .00000174  00000-0  80505-4 0  4200
2 20439 098.4209 021.9122 0011864 075.8420 284.4077 14.32026746156644
LO-19
1 20442U 90005G   12074.86961708  .00000231  00000-0  10111-3 0 03486
2 20442 098.3866 024.2710 0012809 072.2144 288.0433 14.32246739156685
AO-27
1 22825U 93061C   12074.89016720  .00000056  00000-0  38937-4 0   542
2 22825 098.5656 019.2166 0008208 191.3034 168.7963 14.29437344963003
IO-26
1 22826U 93061D   12074.97901427  .00000177  00000-0  85846-4 0 08058
2 22826 098.5598 019.6984 0008605 185.2757 174.8332 14.29709233963148
GO-32
1 25397U 98043D   12075.47569770  .00000127  00000-0  74120-4 0  7266
2 25397 098.3556 058.8405 0001460 157.6458 202.4784 14.23262515710692
NO-44
1 26931U 01043C   12074.74671729  .00000167  00000-0  97296-4 0 09942
2 26931 067.0537 003.7383 0006812 279.6077 080.4272 14.29770214545745
SO-50
1 27607U 02058C   12075.84364993  .00000860  00000-0  15012-3 0  7138
2 27607 064.5577 218.8229 0085042 267.0467 092.0904 14.72257586496225
CO-55
1 27844U 03031E   12074.56895344  .00000247  00000-0  13389-3 0 03310
2 27844 098.7046 084.3226 0010343 132.7307 227.4739 14.20976014451457
CO-57
1 27848U 03031J   12074.55624810  .00000444  00000-0  22581-3 0  2795
2 27848 098.7156 083.6041 0010555 137.5968 222.6071 14.20734754451393
AO-51
1 28375U 04025K   12075.47487417  .00000243  00000-0  85659-4 0  2172
2 28375 098.1354 045.1661 0083874 325.6274 033.9518 14.40910523405275
CP3
1 31129U 07012N   12074.67089594  .00000614  00000-0  14930-3 0 01171
2 31129 097.8881 088.0109 0102498 057.6295 303.4765 14.52929767260258
CO-65
1 32785U 08021C   12074.70788086  .00000989  00000-0  12868-3 0 02575
2 32785 097.8112 137.9623 0014944 015.3942 344.7681 14.82750722209767
PRISM
1 33493U 09002B   12075.78520407  .00003712  00000-0  45838-3 0  5160
2 33493 098.1568 214.2356 0018287 237.7967 122.1601 14.83362375169901
SOHLA-1
1 33496U 09002E   12074.96230463  .00000564  00000-0  10254-3 0 06798
2 33496 098.0945 187.3808 0006479 349.7552 010.3521 14.69891742168400
SO-67
1 35870U 09049F   12075.84921946  .00004697  00000-0  20249-3 0  7739
2 35870 097.2451 114.8773 0003384 117.6074 002.2233 15.23019383138401
TISAT-1
1 36799U 10035E   12075.95129132  .00001788  00000-0  23389-3 0  7912
2 36799 098.0688 151.6061 0016414 114.0069 246.2861 14.81619629 90681
STUDSAT
1 36801U 10035G   12074.93503214  .00006938  00000-0  85064-3 0 03657
2 36801 098.0761 150.9250 0013810 104.6075 255.6649 14.83388885090540
FO-69
1 37227U 0        12046.04422040  .00000330  00000-0  54773-4 0 01033
2 37227 071.9672 223.6606 0017759 195.0744 164.9889 14.76923927017912
FO-70
1 37380U 0        12046.50349291  .00000331  00000-0  55150-4 0 01064
2 37380 071.9705 223.0530 0018152 191.1227 168.9536 14.76682035017870
NOAA-10
1 16969U 86073A   12074.67868145  .00000095  00000-0  56365-4 0 08569
2 16969 098.5933 105.3716 0012762 147.9110 212.2849 14.27533856326388
NOAA-11
1 19531U 88089A   12074.74319147 -.00000211  00000-0 -86898-4 0 08518
2 19531 098.7337 161.8812 0011710 130.6076 229.6125 14.14955497211154
NOAA-12
1 21263U 91032A   12074.99152017 -.00000115  00000-0 -30052-4 0 03556
2 21263 098.7359 097.0690 0014644 113.5048 246.7685 14.25482091083138
MET-3/5
1 21655U 91056A   12075.55633581  .00000051  00000-0  10000-3 0  3591
2 21655 082.5561 218.3184 0013223 191.6867 168.3897 13.17035799989579
MET-2/21
1 22782U 93055A   12075.58502497  .00000007  00000-0 -69245-5 0  3643
2 22782 082.5457 106.7851 0024010 057.2601 303.0881 13.83676797936222
OKEAN-4
1 23317U 94066A   12075.89718604  .00000960  00000-0  11314-3 0  8312
2 23317 082.5398 118.4128 0019976 302.7638 057.1652 14.83632528940976
NOAA-14
1 23455U 94089A   12074.92794851  .00000343  00000-0  20404-3 0 08372
2 23455 098.8272 159.6050 0008957 223.7898 136.2565 14.13883941887475
NOAA-15
1 25338U 98030A   12074.76175415  .00000203  00000-0  10557-3 0 01876
2 25338 098.6853 062.5940 0011039 028.3578 331.8180 14.25040461719407
RESURS
1 25394U 98043A   12075.89773462  .00000126  00000-0  72062-4 0   382
2 25394 098.3152 069.0739 0002041 128.7427 231.3935 14.24277560711121
FENGYUN1
1 25730U 99025A   12075.93505523  .00001224  00000-0  72647-3 0  5599
2 25730 098.8410 036.5792 0018587 276.3884 083.5164 14.09318407661476
OKEAN-0
1 25860U 99039A   12074.91305905  .00000646  00000-0  10549-3 0 05744
2 25860 097.9247 039.5507 0001079 109.5898 250.5427 14.74115629680680
NOAA-16
1 26536U 00055A   12074.77047765 -.00000087  00000-0 -22161-4 0 06719
2 26536 099.1070 115.3858 0010356 353.8402 006.2631 14.12712599591702
NOAA-17
1 27453U 02032A   12074.89574152  .00000205  00000-0  10616-3 0 06365
2 27453 098.3468 106.6555 0012730 074.7459 285.5123 14.24404058505332
NOAA-18
1 28654U 05018A   12074.72605978  .00000381  00000-0  23453-3 0 01104
2 28654 099.0357 032.0811 0015133 061.9532 298.3160 14.11618001351230
NOAA-19
1 33591U 09005A   12074.78359563  .00000033  00000-0  42698-4 0 03000
2 33591 098.8574 015.7804 0013310 290.2496 069.7245 14.11305935159694
HUBBLE
1 20580U 90037B   12075.19440738  .00001841  00000-0  12364-3 0  9639
2 20580 028.4707 038.5295 0003689 141.7876 218.2985 15.02272664   580
ISS
1 25544U 98067A   12075.92117777  .00020886  00000-0  26510-3 0  1922
2 25544 051.6400 229.6734 0016994 159.6837 338.9582 15.59224002763474
CO-58
1 28895U 05043F   12075.63988014  .00000694  00000-0  15172-3 0  1235
2 28895 097.9310 305.9593 0018973 086.1117 274.2241 14.60521195340002
FALCON
1 30776U 07006E   12074.59617009  .00004009  00000-0  26608-3 0 03146
2 30776 035.4320 134.2883 0002830 268.4167 091.6225 15.06833062275977
MAST
1 31126U 07012K   12075.57095659  .00000474  00000-0  11579-3 0  4080
2 31126 097.8785 092.1373 0094886 042.8001 318.0556 14.54064589260668
CAPE1
1 31130U 07012P   12075.52748953  .00000786  00000-0  18878-3 0  4199
2 31130 097.8850 088.5415 0102608 055.6543 305.4289 14.52810023260176
COMPASS
1 32787U 08021E   12074.66012629  .00001972  00000-0  24505-3 0 02502
2 32787 097.8097 138.0659 0015604 014.5083 345.6578 14.83619714209797
AAUSAT2
1 32788U 08021F   12074.91901052  .00001947  00000-0  24031-3 0 02436
2 32788 097.8127 138.6509 0014977 016.2406 343.9282 14.83909763209858
DO-64
1 32789U 08021G   12075.65916429  .00003577  00000-0  42340-3 0  2550
2 32789 097.8218 141.0650 0014753 008.8342 351.3157 14.85141211209990
CO-66
1 32791U 08021J   12075.69417605  .00001866  00000-0  23496-3 0  2436
2 32791 097.8117 138.8900 0015698 011.4899 348.6613 14.83110748209882
RS-30
1 32953U 08025A   12075.84304605  .00000010  00000-0  00000 0 0  6102
2 32953 082.5072 353.1855 0018848 147.9003 212.3230 12.43021499172964
TACSAT-3
1 35001U 09028A   12075.76403871  .00179862  00000-0  86027-3 0  9055
2 35001 040.4464 290.6824 0011898 299.1689 060.8034 15.81312926159650
PHARMSAT
1 35002U 09028B   12075.84340584  .00066452  00000-0  57160-3 0  8275
2 35002 040.4654 297.3866 0000843 186.3767 173.7079 15.68339454159590
METEOR-M
1 35865U 09049A   12075.69766118  .00000004  00000-0  21445-4 0  2333
2 35865 098.6668 131.7288 0002156 344.2274 015.8800 14.21857499129310
RS-38
1 35869U 09049E   12075.80269290  .00000067  00000-0  49847-4 0  2413
2 35869 098.6630 131.8419 0004279 333.4482 026.6458 14.22059051129340
JUGNU
1 37839U 11058B   12074.61933390  .00000620  00000-0  19019-3 0 01097
2 37839 019.9616 211.1157 0019327 261.2510 098.5712 14.12032473021867
SRMSAT
1 37841U 11058D   12074.75761561  .00000264  00000-0  00000-0 0 01107
2 37841 019.9725 213.2993 0012506 230.8327 129.0993 14.10122720021855
RAX-2
1 37853U 11061D   12074.98659191  .00004065  00000-0  33275-3 0 01324
2 37853 101.7173 072.3394 0249943 259.1836 098.1143 14.79167404020473
AUBIESAT
1 37854U 11061E   12075.77515088  .00004326  00000-0  34811-3 0  1258
2 37854 101.7195 073.6201 0251165 256.2954 101.0167 14.79498735 20572
HRBE
1 37855U 11061F   12074.96932450  .00004595  00000-0  37002-3 0 01326
2 37855 101.7215 072.4305 0251341 258.6597 098.6288 14.79383672020458
RS-39
1 38051U 11062C   12075.92525311  .00008291  00000-0  36364-3 0  1548
2 38051 051.6447 243.7325 0011453 062.3551 094.6901 15.22748450  7754
/EX


More information about the Keps mailing list